NOAA 16 DEB

Satellite information

Favourite Embed

Satellite Type and Status

DEBRISIN ORBIT

Key statistics

Satellite NOAA 16 DEB at a glance.

Uptime

9166

Days in orbit

Revolutions

≈ 14.9

Per day

Orbit

SSO

Sun Synchronous Orbit

Inclination

98.9

Latest

Satellite identification and parameters

Extended collection of information and parameters for NOAA 16 DEB.

Object identification

Identified? True

Debris? True

Object name: NOAA 16 DEB

International designator: 2000-055SL

Object number (NORAD): 42392

Object ID (CCSDS): 42392

Country: UNITED STATES OF AMERICA (US)

Current information (Y/N): Y

RCS size: SMALL

Orbital parameters

Period: 96.355 minutes

Inclination: 98.9467 deg

SMA: 6962.127 km

Apoapsis: 592.006 km

Periapsis: 575.977 km

RAAN: 151.1286 deg

Eccentricy: 0.00115121

Argument of periapsis: 38.7687 deg

Mean anomaly: 321.4354 deg

Mean motion: 14.94479262 rev/day

Mean motion (dot): 0.00099071 rev/day2

B* drag term: 0.0090504077 1/REarth

Two-line elements (TLE)

Creation date: Oct. 23, 2025, 6:40 p.m.

Reference frame: TEME

Reference center: EARTH

Epoch: Oct. 23, 2025, 2:56 a.m. UTC

TLE line 0: 0 NOAA 16 DEB

TLE line 1: 1 42392U 00055SL 25296.12286429 .00099071 00000-0 90504-2 0 9994

TLE line 2: 2 42392 98.9467 151.1286 0011512 38.7687 321.4354 14.94479262501239

Live tracking on map

Real-time ground track for satellite NOAA 16 DEB.

In-orbit conjunctions

A list of the most updated potential collisions computed for object NOAA 16 DEB.

Target Orbit TCA Probability of collision Miss distance Type
ORBVIEW 1 (MICROLAB) LEO 2025-01-26 17:32:04 0.00109872 185.0 (m) PAYLOAD
ORBVIEW 1 (MICROLAB) LEO 2025-01-26 15:53:43 0.0006778677 270.0 (m) PAYLOAD

Associated space launch

The NOAA K, L and M POES satellites begin the fifth generation of improved environmental monitoring in support of NOAA missions. The instrument payload has significant improvements and additions/deletions. The instrument changes have effected the spacecraft subsystems and data formats.

NOAA 16 DEB was lifted into orbit during the mission ‘Titan II SLV | NOAA 16’, on board a Titan II SLV space rocket.

The launch took place on Sept. 21, 2000, 10:22 a.m. from Space Launch Complex 4W.

For more information about the launch, click the button.

Launch to space Titan II SLV | NOAA 16
Titan II SLV | NOAA 16

Agency: N/A

Status: Launch Successful

Launch date: Sept. 21, 2000, 10:22 a.m. UTC

Rocket: Titan II SLV

Launch pad: Space Launch Complex 4W

Location: Vandenberg SFB, CA, USA

...

Latest news about this satellite

There are no fresh news available about this satellite. Check back as we update our databases every day.


Newsletter sign-up

Weekly statistics, charts and insights to help you stay on top of the space industry.